Theta_e
313 307 304 307 310 310 309 308 307 309 312 310 309 309 312 316 317 317 317 320 321 324 326 330 334 336 339 342 345 347 348 353 351 349 343 340 339 337 337 339 338 340 337 333
310 306 311 312 310 309 308 306 306 310 312 311 310 308 312 314 316 317 317 319 321 323 325 328 335 337 340 342 344 347 348 353 350 344 341 343 342 338 336 336 334 332 330 326
307 310 314 310 309 307 307 305 306 306 310 311 308 306 308 313 315 318 319 322 323 322 323 328 333 336 338 340 343 346 345 345 342 339 338 336 334 333 329 326 325 326 323 322
309 312 310 309 307 308 303 309 308 307 305 301 309 298 308 311 313 316 318 319 321 323 326 328 330 335 337 339 340 342 340 339 335 336 332 329 327 322 322 322 321 320 321 319
307 308 308 306 307 309 306 311 309 307 305 304 304 300 305 311 309 313 317 318 320 322 324 325 325 332 333 333 337 338 337 336 334 332 330 324 322 320 319 318 318 317 319 318
309 314 311 309 311 311 312 308 308 307 304 296 301 300 301 305 310 313 316 317 319 320 322 325 328 331 331 332 334 335 336 334 332 329 327 324 320 318 315 315 314 314 313 313
307 308 311 312 307 311 309 305 297 295 295 294 304 300 304 310 313 314 314 316 319 320 320 321 328 327 329 329 329 329 329 327 327 324 322 320 318 316 315 313 311 309 307 308
301 300 307 311 307 306 306 305 299 293 294 296 304 298 303 313 315 315 315 316 319 320 320 322 326 327 326 326 326 323 322 322 321 320 318 318 317 313 313 310 308 306 306 306
302 303 311 311 310 309 305 302 307 303 302 298 301 306 311 314 313 313 313 316 319 320 323 324 325 326 325 324 323 321 320 318 317 316 315 315 314 312 309 307 306 305 306 306
308 302 309 310 311 310 307 309 301 302 293 292 298 300 301 307 308 312 313 315 318 321 322 324 324 325 323 321 321 320 317 315 314 313 312 310 310 308 306 305 305 304 305 305
310 308 305 309 305 303 304 302 304 306 304 297 295 299 311 308 310 313 314 316 317 319 320 322 323 322 320 319 316 316 313 311 310 310 308 307 306 306 305 303 304 305 304 304
312 308 301 304 310 311 308 305 306 300 299 303 303 301 315 313 313 315 313 316 319 320 321 322 322 319 317 315 313 311 311 308 307 306 305 304 302 303 302 303 304 303 304 305
312 307 299 301 306 310 306 304 307 307 308 302 302 302 314 313 314 315 313 319 320 321 321 320 318 316 314 312 310 308 308 305 303 303 302 302 302 302 302 302 303 304 303 303
314 309 305 301 301 305 304 305 306 304 299 299 301 303 308 311 312 313 316 319 319 320 320 318 315 314 312 309 307 306 304 303 301 301 301 300 302 302 302 304 303 302 302 301
311 304 306 306 307 306 305 305 304 301 302 298 301 302 302 312 313 314 317 317 318 317 315 314 313 311 309 307 305 304 302 301 301 300 301 301 304 305 305 303 302 301 301 300
314 304 306 303 306 305 303 304 304 305 304 303 303 301 309 316 318 316 316 316 316 314 313 312 311 308 306 304 302 301 301 300 301 302 301 304 304 305 306 304 302 301 301 300
310 307 303 298 304 303 299 303 305 305 306 304 300 306 311 311 315 315 316 317 315 313 312 310 308 306 304 303 302 300 300 301 302 303 304 305 306 305 306 305 303 301 300 301
308 307 306 299 301 291 303 308 308 305 306 306 308 310 312 312 318 318 318 315 313 312 310 308 306 305 304 303 302 302 303 303 303 304 304 305 305 304 305 305 304 304 305 304
313 308 301 298 297 300 302 306 307 304 304 309 309 309 311 315 316 315 317 316 313 311 309 307 306 305 304 303 303 304 303 304 304 304 304 304 305 304 304 303 302 303 304 306
309 314 304 299 295 293 304 310 313 311 299 310 310 311 314 314 307 308 313 312 311 310 308 306 305 305 304 304 306 305 304 304 303 304 304 306 305 305 302 305 303 304 303 304
303 304 300 298 297 300 309 310 312 298 302 312 312 310 314 312 313 312 313 311 310 307 306 306 305 304 304 306 307 305 304 303 304 304 305 306 306 306 304 305 302 301 300 304
301 300 299 300 296 294 314 312 304 312 315 314 314 312 315 313 313 312 311 308 306 305 305 305 304 304 305 306 306 304 304 306 305 305 305 305 308 306 306 304 301 300 300 299
299 305 301 302 302 311 315 313 317 317 315 315 314 314 313 313 311 310 309 308 306 306 304 306 304 303 305 306 307 304 306 306 305 305 306 305 308 306 307 304 302 298 299 297
306 311 305 305 307 310 312 316 316 316 316 317 316 315 313 311 311 309 308 306 305 304 304 305 305 303 303 305 305 307 306 307 306 305 305 304 307 305 308 303 301 298 297 296
306 307 306 305 308 310 311 314 316 315 316 316 317 316 312 312 310 309 307 306 305 304 305 306 305 303 304 306 306 307 307 307 305 305 303 304 304 307 305 301 297 299 296 293
309 307 301 303 310 311 311 315 316 314 314 315 314 313 314 314 309 309 306 307 305 304 305 305 305 306 304 305 305 306 308 307 306 304 301 303 303 302 302 301 297 292 293 292
Wind_Speed
14 11 13 15 15 19 20 15 14 15 17 19 15 17 12 14 17 16 14 14 13 15 14 12 13 9 6 7 6 4 3 4 3 2 4 4 4 6 5 5 7 7 8 10
13 13 16 17 15 17 18 18 15 10 7 13 9 14 17 16 16 17 17 15 14 13 14 13 14 12 8 6 5 4 5 3 5 5 5 3 4 4 5 5 8 9 11 12
16 19 14 12 8 9 12 14 14 16 7 6 7 15 18 18 19 18 18 14 14 14 14 14 15 15 12 9 8 4 8 8 8 8 5 6 6 5 5 9 8 9 13 12
15 14 9 7 11 12 13 13 16 14 12 10 16 13 15 18 18 17 17 14 14 12 10 11 13 14 14 10 13 11 11 9 9 8 7 9 6 7 7 8 8 10 11 13
14 12 8 9 13 14 13 10 9 7 10 14 16 11 11 11 14 18 14 14 13 13 12 11 9 7 13 16 12 10 9 9 7 7 8 7 7 7 8 8 11 11 9 10
15 15 8 10 13 12 10 2 9 6 9 12 16 15 15 13 12 10 14 11 11 12 10 6 17 19 15 14 12 8 8 6 7 6 7 8 9 9 9 9 9 8 9 10
17 15 12 10 13 12 9 3 7 10 11 14 18 18 14 6 8 11 9 5 6 4 3 3 18 16 13 12 10 9 8 7 8 8 9 9 9 10 10 11 9 13 10 9
13 14 21 15 13 12 13 12 8 6 10 3 8 7 9 9 7 5 3 1 3 4 5 8 13 15 16 14 11 11 11 9 10 9 10 9 9 7 8 10 9 9 9 9
14 15 8 16 11 15 15 12 15 16 15 13 12 16 10 7 5 3 4 5 7 5 14 17 16 15 14 13 10 10 9 10 10 10 9 10 10 11 10 12 10 9 11 10
14 13 15 7 7 12 15 13 7 6 6 14 13 16 2 7 16 4 5 6 7 9 17 15 15 13 12 10 10 11 10 10 11 11 10 10 11 12 11 10 11 12 12 13
11 11 13 10 8 12 13 11 14 11 9 9 9 2 9 15 21 8 7 10 12 10 17 12 14 11 12 9 12 11 11 12 11 11 12 12 12 11 10 10 11 11 13 14
5 7 12 17 15 12 14 16 12 9 12 10 9 9 11 15 1 6 4 7 16 17 15 13 13 12 10 11 11 11 10 11 12 12 12 11 12 11 11 11 12 12 13 13
10 5 12 16 14 13 8 7 8 14 11 15 3 6 4 9 24 16 4 15 16 16 14 13 13 11 11 11 11 11 12 13 13 13 12 11 10 10 11 11 12 12 13 13
5 6 12 10 16 4 4 11 17 12 8 12 16 16 10 15 16 8 19 10 15 14 13 14 12 11 11 10 10 11 12 12 11 11 10 8 10 10 10 10 10 11 12 13
3 10 15 19 18 18 17 9 11 10 19 7 20 23 25 10 11 16 19 7 13 15 14 11 11 10 10 9 10 11 10 9 9 9 7 8 8 9 8 8 8 9 10 11
8 7 14 18 21 22 28 19 14 11 8 9 13 22 24 3 13 13 12 13 12 14 13 11 10 9 9 9 9 9 9 10 7 6 8 7 8 9 8 6 6 7 9 10
5 8 10 15 19 22 22 17 17 19 12 10 13 21 13 14 6 11 10 11 15 14 12 10 9 8 8 8 7 8 7 6 7 9 7 7 7 9 8 5 4 5 7 6
9 11 9 13 15 23 16 17 14 16 16 16 15 10 5 10 10 11 14 15 15 14 12 10 8 8 7 7 7 5 2 3 7 7 8 6 7 9 9 11 7 9 5 4
13 10 10 13 14 18 20 11 7 4 6 8 13 5 5 15 14 16 16 15 16 15 12 9 9 8 8 7 4 3 4 5 7 9 9 9 10 11 10 9 9 11 11 7
16 12 9 10 16 16 16 5 4 3 12 8 13 12 15 22 12 11 15 17 16 14 10 10 10 9 8 3 2 6 5 8 9 11 11 9 8 9 10 9 7 9 11 9
11 6 8 10 12 11 7 5 6 4 3 10 8 11 24 7 6 20 16 15 14 13 13 11 10 9 5 3 6 7 8 9 8 9 10 10 6 6 8 7 9 10 11 9
11 8 8 8 11 12 10 8 7 6 2 8 3 15 12 18 20 20 18 16 14 14 13 11 10 8 5 6 7 7 8 7 6 7 9 9 3 4 4 8 8 10 11 10
12 8 8 5 4 1 4 2 4 6 10 10 14 15 14 18 20 18 16 15 12 13 11 9 9 8 6 5 6 7 7 7 7 9 8 8 5 7 5 5 5 7 9 9
3 13 5 5 2 6 3 2 1 2 10 11 12 14 17 1 16 16 14 13 12 11 10 9 9 8 6 5 7 6 7 7 8 9 9 8 5 6 4 4 5 6 7 7
3 5 12 4 2 2 2 4 8 6 8 10 10 11 7 12 11 13 12 12 12 10 10 8 7 6 4 5 6 6 6 7 8 7 9 6 5 4 3 4 4 4 3 3
9 4 2 5 6 1 3 5 3 6 8 9 13 10 1 10 11 14 12 11 11 11 10 8 7 4 4 5 6 6 6 6 7 6 7 7 5 6 4 2 4 4 1 5
Wind_Direction
213 230 233 236 239 255 276 265 227 260 191 193 209 247 238 198 186 197 214 209 211 195 201 193 168 172 165 163 153 166 204 208 204 282 299 303 338 341 328 332 328 326 2 3
251 226 250 248 245 237 262 281 285 269 256 185 209 235 245 236 209 200 207 226 207 205 196 194 167 167 168 169 166 176 214 225 40 12 359 318 312 331 312 302 8 345 9 354
234 241 209 247 251 272 268 267 266 274 216 180 258 275 270 239 244 202 202 218 220 203 200 189 170 167 166 169 179 170 70 63 51 26 329 9 349 330 343 356 331 2 345 337
256 238 242 243 251 257 252 245 252 275 278 246 197 246 249 238 237 231 193 207 228 219 204 191 175 164 164 167 85 84 76 53 59 41 6 3 336 344 340 331 333 334 331 307
250 228 232 245 251 248 255 358 321 257 286 293 279 273 267 280 263 221 183 206 224 230 220 208 187 108 101 95 93 87 82 72 59 29 20 358 355 331 328 331 323 320 306 354
251 283 268 232 250 238 266 38 284 281 283 268 262 262 273 274 3 179 196 196 221 236 236 235 110 101 107 106 102 98 94 93 65 34 15 4 345 337 325 321 324 330 343 333
250 243 238 244 268 237 232 207 246 235 230 248 247 239 238 61 56 27 40 91 76 51 356 63 114 117 117 114 110 118 76 44 44 20 10 356 347 331 331 329 349 339 328 322
226 231 211 202 226 241 205 238 239 265 281 291 326 289 269 94 88 100 91 48 109 90 271 164 123 116 98 82 64 42 40 22 21 11 1 351 344 338 339 355 343 321 316 323
264 270 322 200 181 238 253 203 238 269 287 286 267 241 90 154 137 155 157 158 124 133 87 77 74 78 83 80 66 47 29 23 10 8 357 347 351 1 351 347 329 321 315 314
245 278 277 179 182 216 247 278 233 233 254 270 280 278 112 42 317 184 185 163 158 164 111 99 89 78 76 67 69 48 24 11 12 3 359 354 357 358 343 331 328 321 318 318
204 245 273 249 186 241 234 241 270 280 248 229 262 304 135 175 218 183 197 192 190 96 94 98 97 85 74 46 41 35 17 6 6 3 0 359 352 345 341 332 331 331 318 310
261 234 240 246 237 242 243 263 217 253 247 257 209 237 342 344 221 142 234 78 109 133 130 121 112 92 65 49 33 23 19 10 6 359 357 353 347 348 341 335 331 316 320 320
353 228 245 256 267 258 214 352 326 352 302 271 266 280 296 44 327 351 239 88 91 101 105 101 80 69 53 38 23 13 15 11 1 354 353 356 353 345 341 330 320 340 337 335
19 291 276 250 267 311 285 333 320 318 306 326 301 261 168 175 214 29 329 91 107 103 85 82 74 61 50 32 18 15 12 7 356 356 1 353 346 336 322 338 342 342 338 338
211 271 270 273 276 267 282 193 191 214 270 305 322 317 316 192 170 131 218 124 114 104 90 74 64 50 41 28 16 17 10 1 6 353 350 350 328 319 325 335 336 338 340 342
192 250 278 277 276 278 273 267 171 186 232 292 320 322 289 91 137 140 149 132 120 102 95 84 65 48 37 28 21 16 14 14 339 322 348 327 325 324 317 300 307 323 338 349
282 285 263 268 273 274 265 262 278 296 238 187 238 250 167 195 159 141 144 132 112 106 96 81 69 59 46 40 35 27 26 349 326 309 336 348 325 329 340 351 302 321 314 338
249 262 271 261 273 264 279 285 269 260 272 276 241 307 178 289 142 124 108 103 108 110 99 85 79 73 63 64 55 41 3 334 342 344 333 348 344 330 357 357 354 333 300 330
230 225 262 269 261 268 265 281 352 46 290 313 291 316 279 167 103 83 97 101 97 93 94 94 88 93 84 72 58 34 24 352 357 340 354 360 358 358 2 345 3 333 328 317
216 204 232 263 284 282 312 100 88 95 280 269 353 297 193 151 157 122 104 105 102 103 111 106 109 103 94 102 45 49 28 14 8 349 350 339 5 2 341 342 353 349 340 334
204 176 221 248 270 279 360 75 127 244 3 40 19 6 294 126 91 122 117 113 117 125 117 113 106 94 99 40 46 36 24 18 9 350 329 329 27 350 322 3 18 354 344 342
215 221 217 228 239 260 14 320 294 19 62 48 94 235 145 112 112 119 118 123 128 129 125 119 110 116 94 53 28 35 29 12 1 320 310 324 339 319 336 34 24 4 357 3
232 216 240 150 150 116 324 30 97 334 64 66 76 73 37 125 123 131 129 121 123 120 120 119 115 117 95 72 47 28 29 3 336 324 334 341 15 349 46 38 41 13 12 14
269 344 232 190 332 34 32 58 2 306 81 104 88 87 85 68 117 124 120 121 121 123 122 117 126 114 95 66 46 41 31 342 344 343 336 343 12 345 48 29 25 42 15 19
126 103 261 174 326 33 315 23 149 112 108 112 106 113 68 174 128 127 130 127 122 128 120 117 113 109 92 56 47 43 29 341 354 5 335 349 346 355 46 67 18 67 48 11
247 142 83 294 103 348 100 2 23 162 177 129 118 93 48 216 134 128 124 123 134 124 116 120 117 95 56 51 32 35 21 356 1 357 340 325 351 344 32 37 148 35 107 266